Theta_e
310 309 309 310 308 309 311 311 312 310 310 313 310 309 308 308 310 308 308 310 313 315 314 316 316 316 316 316 316 316 316 315 314 314 313 313 312 311 311 311 311 311 312 313
308 309 309 310 311 312 312 313 311 309 311 313 313 311 310 311 310 309 308 308 313 313 312 313 315 315 316 316 316 316 315 314 313 312 312 311 310 310 310 309 310 310 309 310
310 312 312 312 313 313 312 311 310 311 313 313 313 312 313 312 311 311 309 309 311 314 314 312 312 314 316 316 316 315 314 313 312 312 311 311 310 310 309 308 308 308 308 309
310 310 311 311 312 311 312 310 311 313 312 311 312 311 311 311 311 311 310 307 309 313 313 312 311 313 315 315 315 315 314 312 312 311 311 310 309 308 307 307 306 306 307 307
312 310 311 311 311 311 312 311 311 313 311 312 312 312 310 309 311 311 309 307 307 312 312 312 311 313 315 315 315 313 312 311 311 310 310 309 308 307 306 306 306 306 306 307
311 310 310 310 310 310 311 310 310 311 308 311 311 311 310 310 311 315 315 313 309 310 310 311 313 314 314 313 313 312 311 311 310 309 310 308 307 307 306 305 305 305 306 306
311 311 310 310 312 311 309 310 312 313 314 313 312 312 310 310 311 316 316 313 310 310 311 311 309 310 312 311 311 310 310 309 309 309 309 308 307 306 306 305 304 305 305 306
312 313 312 311 311 310 309 310 313 315 313 314 317 320 318 317 315 313 312 311 310 310 310 310 310 310 310 310 310 310 309 309 309 308 308 307 307 306 305 305 304 304 304 305
311 312 311 311 311 311 311 311 309 312 315 317 316 315 313 318 316 314 313 312 311 310 310 311 309 310 310 309 309 309 308 308 308 308 307 307 306 305 304 304 304 304 304 304
312 313 312 313 312 312 311 311 313 310 318 319 315 316 316 320 318 316 315 313 312 311 310 309 308 309 308 309 309 308 308 308 308 307 307 306 305 304 304 303 303 303 304 304
311 311 313 315 313 313 315 314 314 313 312 316 316 317 313 313 316 316 314 313 312 311 310 309 307 308 308 308 308 308 308 307 307 307 306 305 304 303 303 303 303 303 303 303
315 311 313 314 312 312 313 313 315 316 317 314 313 317 314 316 314 314 314 314 312 310 310 308 305 306 306 307 308 308 307 307 307 306 304 303 303 303 303 303 303 303 303 303
316 311 313 315 312 314 315 311 314 311 311 317 318 318 313 315 315 314 315 313 312 310 309 305 304 304 306 307 307 307 307 307 306 304 303 303 302 302 302 302 303 303 302 302
313 313 311 313 313 314 316 316 312 313 313 317 316 317 317 316 316 315 313 311 310 311 308 305 304 304 306 307 307 306 307 306 304 303 303 302 302 302 302 302 302 302 303 303
308 309 313 313 315 313 315 316 315 313 314 315 316 313 315 315 315 314 314 312 312 311 308 306 306 304 305 306 306 306 306 304 303 302 302 301 301 301 302 302 302 302 303 303
306 308 311 309 306 307 314 316 317 314 315 314 314 314 312 310 312 313 313 313 313 312 310 307 307 305 305 306 306 305 304 303 302 301 301 301 301 301 301 302 302 303 303 303
304 305 307 307 305 307 308 311 316 317 315 315 315 315 312 313 313 312 312 312 313 312 309 308 307 306 306 306 305 303 302 301 301 300 300 300 300 301 301 302 302 303 303 303
303 305 305 307 306 308 305 309 312 315 316 314 314 311 312 313 312 311 310 311 311 309 309 308 306 306 306 305 303 302 301 301 301 300 300 300 300 301 301 302 302 303 304 304
304 304 305 307 307 306 305 305 312 316 315 315 314 314 313 310 313 312 311 310 310 309 308 307 308 306 304 304 302 301 300 300 300 300 300 299 300 301 301 302 303 303 304 306
303 305 306 302 304 304 304 303 303 304 308 309 312 315 314 312 314 316 311 309 308 307 307 306 306 305 303 302 301 300 300 299 299 300 300 300 300 300 301 302 303 303 305 308
301 305 306 308 307 305 305 308 311 315 310 313 314 313 311 314 315 311 308 309 308 307 306 306 304 303 302 301 300 299 299 298 299 300 300 300 300 300 301 302 302 303 304 305
302 302 304 308 309 309 308 311 310 308 309 311 313 314 312 312 311 310 310 310 308 306 304 304 302 301 301 301 299 299 298 299 300 300 300 300 300 300 300 300 301 302 303 303
300 303 302 306 303 305 307 309 308 308 311 311 316 315 312 314 313 312 312 309 307 305 303 303 301 300 300 300 299 299 299 300 299 299 300 300 299 299 299 299 299 299 300 301
305 305 307 308 304 305 307 308 308 311 310 311 310 314 312 314 312 311 310 306 305 304 303 302 300 299 299 300 299 299 299 299 299 299 299 299 298 298 298 298 297 298 298 299
302 305 305 305 303 303 304 306 309 309 309 310 311 313 314 313 312 310 306 304 304 303 302 301 299 299 299 299 299 299 299 299 299 299 299 298 297 297 297 297 296 297 297 297
301 301 303 303 301 302 304 308 309 309 308 309 310 315 313 313 311 307 304 303 302 301 301 299 299 299 298 299 299 299 299 298 298 297 297 296 295 295 295 295 296 296 296 296
Wind_Speed
2 4 4 6 6 2 1 1 2 3 3 2 6 7 11 7 4 7 8 9 10 14 6 20 23 22 20 18 17 14 10 6 3 2 4 6 8 12 14 14 17 19 20 19
5 5 8 4 3 4 3 1 6 6 3 3 4 8 9 5 7 9 11 11 16 9 8 15 22 20 20 18 16 13 10 6 3 3 5 7 12 14 19 21 20 20 20 20
6 5 4 4 3 3 3 4 5 7 3 2 4 6 6 7 5 5 8 8 14 19 17 12 17 23 19 19 16 11 8 4 1 3 6 11 16 21 24 25 26 24 25 22
5 3 4 3 2 6 4 8 5 4 3 4 1 6 5 6 8 6 12 9 10 13 11 9 13 20 23 19 13 9 5 3 4 4 8 11 13 18 26 30 31 29 24 26
7 6 4 4 6 6 7 4 7 3 3 1 1 2 7 3 5 10 9 8 8 13 17 15 13 24 22 17 14 11 8 6 6 5 9 12 16 19 26 31 32 31 30 27
6 1 5 7 4 6 8 6 7 4 3 2 7 7 5 4 4 6 5 6 9 11 10 11 21 21 19 15 14 13 11 8 7 8 12 15 17 22 29 32 33 30 27 24
4 4 3 4 3 3 5 6 2 3 2 6 0 1 8 6 7 6 13 10 5 9 14 13 10 13 18 17 16 15 12 10 8 10 14 16 18 24 29 32 29 27 26 24
5 8 7 5 8 8 7 8 6 6 4 4 1 6 6 3 5 7 5 2 5 7 9 11 11 20 21 20 18 16 12 10 9 13 15 17 21 27 30 33 31 29 26 27
5 6 5 5 3 8 4 4 4 6 2 2 5 7 8 2 5 4 4 7 8 8 8 11 9 17 21 20 19 15 12 10 11 14 16 21 26 29 32 32 30 29 28 29
4 5 6 6 5 4 5 8 3 3 3 5 4 5 6 5 4 3 5 7 7 9 7 6 8 16 17 16 14 11 10 11 13 15 19 25 30 33 32 31 31 30 30 31
5 3 6 1 6 9 3 2 5 4 4 6 2 6 7 9 10 11 10 11 11 9 9 10 8 16 16 14 12 11 11 12 14 17 23 30 34 33 32 31 33 32 31 32
4 2 4 9 5 2 6 8 7 5 5 3 3 11 6 8 12 11 10 9 7 8 9 7 6 11 12 13 11 11 11 13 14 19 27 32 34 33 32 32 33 33 31 31
6 3 5 9 5 3 3 4 5 4 4 8 6 11 4 4 6 9 10 9 9 9 7 7 7 9 14 12 11 12 12 14 17 24 29 33 32 30 30 30 31 32 32 31
4 4 8 9 7 5 7 8 5 7 5 15 7 23 5 6 8 8 10 9 8 7 8 7 7 7 13 11 12 12 13 15 21 26 29 30 30 30 31 32 32 32 32 32
4 6 4 11 7 6 14 18 17 10 17 11 22 11 20 11 10 12 14 6 8 9 9 10 8 7 10 11 11 11 13 18 23 27 28 29 27 29 29 29 31 33 33 33
2 5 3 15 14 15 14 15 19 22 21 14 20 19 9 9 9 6 10 9 10 10 10 10 8 7 9 10 10 10 14 20 24 26 27 26 25 26 27 29 31 32 33 33
9 7 3 21 13 11 9 25 17 18 16 20 16 21 7 8 10 12 13 12 14 13 12 11 9 8 11 12 9 10 15 20 22 23 24 22 23 24 27 29 30 31 32 34
14 15 9 16 11 15 15 3 11 16 20 14 9 8 8 12 13 11 8 9 11 10 11 8 7 10 11 10 6 10 14 18 22 21 19 20 22 25 28 29 31 31 33 34
20 14 10 13 15 16 20 19 4 4 13 12 17 21 16 6 2 8 6 8 10 9 7 9 14 12 11 8 5 9 15 18 18 16 20 22 24 26 28 29 31 32 32 34
16 17 12 3 13 19 22 21 16 21 18 20 17 22 21 7 5 18 10 7 7 8 12 13 12 11 9 5 5 10 15 18 14 18 22 24 24 26 28 30 30 32 32 31
2 4 13 11 11 9 10 6 6 16 12 7 5 19 10 12 11 3 9 6 6 8 13 13 15 13 9 3 5 10 14 15 18 20 22 24 25 27 28 29 30 30 30 31
3 3 4 5 6 11 0 4 14 6 13 14 21 7 8 6 6 7 11 9 8 8 11 16 15 11 6 2 5 10 14 18 19 20 22 24 26 27 27 29 31 28 26 27
4 7 3 5 4 3 4 7 8 9 13 14 17 15 10 10 8 11 9 11 8 8 12 16 13 8 5 3 7 11 17 18 18 20 22 25 26 25 26 28 29 27 24 23
5 6 4 3 6 10 6 7 7 6 10 14 20 18 13 14 9 8 9 9 7 11 11 15 12 7 2 5 9 11 16 18 18 20 22 23 24 26 26 27 25 24 22 22
6 4 4 10 15 11 17 13 7 9 10 13 18 13 17 11 10 10 7 8 7 10 13 15 11 7 1 6 10 12 16 18 18 18 21 22 22 23 26 26 25 25 23 22
7 13 8 10 14 7 14 7 5 8 12 14 20 12 6 13 13 7 9 8 10 10 14 13 10 6 4 7 9 14 17 17 17 17 18 22 21 22 24 26 29 24 23 26
Wind_Direction
29 75 214 218 193 158 146 174 255 252 256 216 223 246 252 251 203 190 186 193 203 210 202 193 187 180 172 166 160 153 151 148 135 54 7 5 343 328 324 319 313 310 309 310
27 235 227 200 189 200 187 291 285 284 264 167 288 261 251 247 224 212 202 205 206 192 183 195 193 188 182 172 166 163 161 156 125 28 3 350 335 330 323 321 315 310 308 304
161 228 111 172 175 174 215 185 224 220 360 15 336 280 237 260 257 242 242 211 207 197 189 191 189 189 186 177 176 172 163 151 19 331 327 334 327 325 323 322 314 311 308 302
221 271 155 129 224 157 246 210 179 180 107 236 42 281 286 241 249 256 252 208 205 198 191 181 174 183 182 182 179 185 179 201 269 294 319 336 328 319 318 316 315 313 309 303
247 174 176 204 216 164 229 144 154 137 132 86 276 309 261 249 255 252 256 260 232 200 183 176 176 179 184 182 185 190 194 216 244 285 320 326 317 314 315 314 314 314 308 305
234 218 178 208 234 171 153 81 55 60 102 312 212 183 272 245 216 303 274 255 244 179 171 156 170 179 184 189 190 197 204 216 244 289 312 316 310 314 315 314 310 307 306 299
327 235 250 161 168 49 83 75 346 343 2 232 195 128 251 242 281 255 287 283 235 165 155 151 156 181 193 196 197 204 209 225 250 290 306 309 305 310 306 307 299 298 296 291
193 291 179 185 191 184 187 155 157 209 199 254 94 235 250 247 308 300 300 171 125 134 138 149 177 194 201 202 202 206 217 241 273 298 301 301 303 306 300 299 295 291 285 286
191 258 285 184 180 141 190 164 200 105 24 63 234 290 304 234 359 25 76 114 128 134 154 182 197 199 207 203 203 209 226 253 286 297 296 297 303 307 303 300 297 288 286 284
276 295 239 239 102 48 168 158 78 6 171 229 268 269 235 236 211 141 138 156 178 187 199 206 206 206 204 203 205 221 243 277 289 292 296 303 308 313 311 305 297 292 289 287
1 138 285 96 201 178 145 187 52 129 145 184 213 257 217 211 188 188 199 198 199 201 208 212 209 205 198 200 214 235 260 277 284 295 304 310 313 314 311 303 299 294 294 293
10 287 251 238 275 243 177 195 158 144 221 227 167 261 201 211 192 185 207 215 215 215 221 222 189 193 198 211 233 256 268 274 288 302 310 315 317 314 306 300 301 301 294 292
347 323 336 329 348 15 224 197 151 120 77 198 176 262 196 194 186 208 205 212 213 219 211 187 181 195 206 228 246 258 269 281 296 310 317 317 313 307 301 298 297 296 294 290
347 233 203 245 264 312 287 306 247 182 171 241 213 254 202 217 215 218 221 220 219 230 208 190 188 199 214 233 244 265 272 289 307 314 313 309 306 305 302 299 296 295 294 292
196 237 234 270 278 303 290 286 270 215 233 208 248 219 252 207 209 222 228 212 205 216 200 195 198 204 216 233 253 259 278 301 314 312 308 304 306 304 300 296 294 294 295 293
228 259 273 280 291 280 276 282 262 256 249 251 247 256 253 203 216 213 213 202 214 217 209 194 202 195 215 234 242 265 293 311 316 310 306 305 301 301 299 299 299 299 297 294
263 272 248 270 269 287 279 246 256 259 246 235 235 246 170 224 216 226 230 208 219 213 193 190 195 198 217 218 230 276 306 315 317 315 307 300 302 303 306 305 303 299 299 299
237 236 230 257 276 252 250 282 264 258 252 245 257 250 203 213 220 230 229 216 213 184 183 183 177 194 202 203 237 294 306 317 323 313 306 307 312 311 310 308 303 306 308 302
219 222 232 231 243 262 284 267 250 212 266 265 245 248 239 230 80 273 209 207 199 169 159 180 190 190 188 203 268 298 314 327 326 313 313 314 317 312 310 306 307 309 308 307
223 223 223 210 231 246 256 262 246 260 262 257 257 252 242 140 209 255 193 161 154 145 159 163 170 166 183 219 278 310 324 329 320 317 318 318 316 310 307 306 310 311 310 305
228 214 240 248 239 259 251 271 294 211 255 213 264 250 192 201 222 173 132 146 149 152 156 163 167 175 194 227 302 318 329 326 322 317 315 319 317 315 312 313 315 315 312 309
230 246 232 221 238 257 252 296 214 278 313 319 317 300 217 192 167 159 152 151 146 146 147 168 165 183 190 266 318 333 334 337 333 322 323 320 319 316 319 321 317 318 317 315
233 203 234 224 235 245 210 215 258 288 289 293 298 292 207 187 176 166 168 149 149 157 155 175 174 171 203 295 341 340 341 340 331 332 326 321 321 322 323 324 323 326 324 317
237 208 247 276 264 244 284 245 264 310 307 300 301 295 213 201 155 151 164 130 141 155 163 172 165 168 190 349 353 351 350 345 340 332 323 323 325 327 327 325 325 323 322 320
247 185 226 255 268 279 266 267 241 292 307 315 308 289 204 158 168 160 143 141 150 156 162 167 161 156 112 5 10 2 351 354 342 330 325 327 329 331 325 324 322 319 319 320
224 244 234 252 259 228 272 248 229 279 309 309 300 291 196 169 150 152 141 138 147 151 155 151 153 135 61 37 30 11 6 6 355 343 335 333 333 334 330 327 327 329 329 330